User: anonymous   Login
Location: ??
(35.5052°N, 139.7262°E)
Time: 20:48:58
(UTC+00:00)
Language:

COSMOS 2428 - Orbit

View from above orbital plane
View from above orbital plane
View from above satellite
View from above satellite

Ground track
Ground track

The orbit data is extracted from the following two-line orbital elements,

1 31792U 07029A   21267.06706768  .00000311  00000-0  19446-3 0  9990
2 31792  70.9160  18.8192 0005651  95.1965 264.9801 14.12358949734323
Epoch (UTC): 24 September 2021 01:36:34
Eccentricity: 0.0005651
inclination: 70.9160°
perigee height: 847 km
apogee height: 855 km
right ascension of ascending node: 18.8192°
argument of perigee: 95.1965°
revolutions per day: 14.12358949
mean anomaly at epoch: 264.9801°
orbit number at epoch: 73432

The dashed part of the orbit path shows where the satellite is in the earth's shadow,  

DLR